Find Starlink 30936

NORAD ID: 58534 Int'l Des: 2023-192 Owner: SPXS Country: US Constellation: starlink operational
LEOCIRCULAR

当前视图

正在加载3D地球...

About Starlink 30936

Starlink 30936 (NORAD 58534) is a starlink constellation satellite (v2 mini) launched Dec 8, 2023 by SPXS of US. It operates in LEO, CIRCULAR orbit with a mass of 730.00 kg.

关于 Starlink 30936

正在加载描述...

即将过境

Passes for default location (London). Set your location on the main map for personalized predictions.

高度历史

Loading altitude history...

两行轨道根数

1 58534U 23192D 26160.80277706 .00003311 00000-0 11837-3 0 9995
2 58534 53.1612 344.5957 0001319 93.8800 266.2353 15.31710442140239
Epoch: Jun 9, 2026 • Age: 17 hours

当前状态

高度 478.9 km
速度 7.63 km/s
星下点 -25.95°S, 124.09°W
发射日期 Dec 8, 2023
运行时间 2.5 years
类型 internet

技术详情

分类 Payload
质量 730.00 kg
干质量 700.00 kg
总质量 730.00 kg
长度 0.30 m
直径 4.10 m
跨度 29.00 m
形状 Box + pan
制造商 SPXS
平台类型 Starlink V2M
阶段状态 In Orbit
所有者/国家 SPXS/US

Most Searched